Theta_e
319 319 318 320 322 325 329 329 334 336 338 339 342 342 341 333 331 331 332 329 330 322 329 336 342 341 341 342 340 338 336 332 325 324 325 325 323 335 334 332 330 332 332
318 318 319 319 319 321 324 328 330 332 333 336 339 339 337 333 331 329 328 323 321 319 326 334 338 338 336 336 337 336 335 331 327 324 326 327 331 331 329 331 331 337 339
315 315 316 319 319 320 321 322 326 326 327 328 334 335 334 331 327 330 329 328 328 329 332 336 334 334 336 337 336 334 334 332 326 329 328 329 333 331 332 334 335 334 334
314 314 314 315 317 318 320 319 322 323 325 324 321 324 327 331 328 327 325 326 327 327 327 327 329 330 332 333 332 332 330 329 331 330 330 329 329 328 328 333 333 332 336
313 313 314 314 314 315 316 319 319 321 318 321 321 322 325 324 325 325 326 326 325 325 325 326 326 327 327 330 330 330 329 328 328 327 326 323 325 325 330 331 332 333 334
313 313 313 314 314 313 313 315 317 321 319 319 319 317 316 319 323 322 323 324 324 324 325 324 325 325 325 324 324 324 322 314 320 323 322 321 322 322 324 329 333 333 332
312 311 311 311 311 311 313 313 314 317 320 320 318 315 317 314 320 322 323 324 323 325 324 325 323 324 322 321 320 318 313 314 315 315 319 321 323 324 326 330 332 333 334
309 309 309 309 309 309 309 311 314 315 319 319 318 316 315 317 320 324 322 322 326 326 325 325 324 323 323 321 318 319 320 321 321 320 319 320 320 322 319 322 326 327 326
308 308 308 307 307 308 308 310 310 313 315 319 319 318 317 317 319 321 323 322 318 320 326 325 326 325 326 321 324 325 323 324 323 320 319 319 318 318 319 321 325 328 330
307 307 306 306 307 307 308 309 309 311 314 316 318 320 321 322 322 323 323 323 323 324 321 325 327 328 327 324 322 325 326 324 323 322 320 320 320 318 320 324 327 330 330
307 306 306 305 305 306 307 308 309 309 310 313 315 315 319 322 322 324 324 323 325 326 323 322 327 328 327 326 324 322 324 324 325 323 322 321 319 320 321 324 327 328 329
305 305 304 304 304 306 307 307 307 308 309 309 313 314 316 319 322 322 323 324 324 325 326 325 325 326 328 327 327 325 324 325 324 322 320 320 319 319 320 320 326 327 326
302 302 302 302 304 305 305 306 306 306 308 309 311 314 314 316 320 321 323 325 324 325 326 326 326 325 327 326 325 325 324 324 322 320 319 319 320 319 321 321 326 327 323
299 300 300 302 303 304 305 305 306 306 306 308 309 311 314 315 316 318 320 322 321 323 324 325 325 323 323 323 322 322 322 321 320 319 319 319 320 322 321 323 327 325 323
297 298 299 299 300 303 303 303 303 305 306 306 308 309 311 313 316 315 316 321 320 321 321 322 322 322 323 322 322 321 319 320 320 320 320 319 320 322 322 324 326 323 324
296 296 297 298 299 300 301 301 301 302 303 305 306 307 308 310 311 311 309 312 317 320 320 321 322 321 322 324 325 323 321 320 320 320 319 319 323 323 324 326 323 324 323
295 295 295 296 297 297 298 300 301 301 302 302 303 305 305 306 308 308 308 307 309 312 319 320 321 320 321 324 324 324 324 323 322 322 322 322 323 324 323 325 323 323 325
293 294 295 295 296 297 298 299 299 300 300 301 301 302 303 304 306 306 306 306 306 310 315 320 320 320 319 323 324 323 322 322 322 322 323 323 323 323 324 325 324 322 322
291 292 293 294 294 296 297 298 299 299 299 299 300 300 301 302 303 303 303 304 306 309 311 317 319 319 320 320 321 321 321 321 320 323 324 323 321 321 323 325 324 322 323
291 291 292 293 293 295 295 295 297 299 299 300 300 301 302 300 301 301 302 304 305 306 308 313 318 318 318 317 317 319 319 319 321 324 323 320 320 321 324 325 323 324 326
293 293 294 294 294 294 295 295 296 297 298 300 300 301 303 302 302 303 304 305 305 306 308 311 314 316 316 316 315 316 317 318 322 324 322 320 320 320 325 325 324 326 328
295 297 298 299 299 299 299 298 298 298 298 299 299 299 302 303 303 303 303 305 305 306 308 310 312 313 314 314 314 314 317 322 324 322 320 321 320 321 325 325 324 322 327
303 302 303 306 310 311 308 304 303 300 300 300 301 301 300 302 303 304 304 305 306 307 308 311 312 312 313 315 315 316 318 323 321 319 320 322 324 325 324 321 324 327 325
312 314 313 313 311 310 309 306 304 302 302 302 302 302 303 304 305 305 306 307 308 309 310 312 312 312 314 315 316 320 320 320 320 320 319 321 325 324 322 325 327 325 321
307 308 311 312 313 312 310 309 308 307 306 305 305 305 305 307 306 307 309 310 310 311 312 312 312 314 315 314 318 318 318 319 319 320 323 325 322 322 325 323 321 318 316
303 303 305 306 308 309 311 312 309 308 307 306 306 306 307 309 308 310 311 311 312 312 313 312 312 314 313 318 319 319 318 319 320 321 324 325 324 323 322 320 318 314 312
Wind_Speed
14 14 16 18 23 26 23 21 23 25 26 29 30 27 30 25 26 23 19 22 11 9 24 19 21 20 16 12 11 8 3 7 4 2 15 33 29 13 13 20 26 24 24
15 18 14 13 18 24 25 24 21 24 23 25 25 19 24 23 23 21 21 8 13 16 49 41 27 20 21 17 16 11 8 10 11 8 10 18 37 36 28 28 25 20 22
17 21 23 16 17 21 23 24 25 21 16 17 20 22 23 22 21 28 22 23 32 46 37 28 22 20 17 13 13 10 7 19 18 15 15 24 23 24 26 23 19 20 20
20 21 21 23 21 20 24 27 22 25 23 20 22 28 25 26 27 28 31 32 34 29 19 17 13 12 12 10 11 10 10 11 6 8 8 12 16 19 23 19 13 18 17
22 23 23 24 24 24 24 27 26 26 30 29 17 19 25 31 26 28 26 24 21 20 19 16 14 10 3 8 9 6 5 1 4 7 9 12 13 18 16 13 15 18 18
22 24 24 23 25 25 28 27 29 26 29 31 28 17 16 35 27 20 15 19 19 17 14 17 10 16 11 6 6 6 3 2 5 3 6 8 14 18 17 17 15 13 3
25 25 25 25 28 30 27 27 28 28 26 23 25 23 24 34 43 13 20 17 17 15 14 15 15 12 15 12 10 6 6 5 8 8 8 9 12 14 18 19 14 14 16
24 24 24 26 28 33 35 33 29 28 25 24 29 31 27 32 47 16 17 16 2 15 17 16 18 16 17 15 11 11 11 10 12 13 13 13 12 14 16 18 20 23 24
28 26 27 29 32 30 33 34 35 32 27 24 27 29 32 35 36 27 20 14 12 21 21 25 25 22 15 21 17 16 18 19 13 9 12 11 12 17 18 18 20 15 10
28 28 28 28 29 29 33 32 28 28 29 26 22 27 33 34 31 29 29 20 25 31 34 16 29 25 22 23 25 22 16 16 13 11 10 13 13 17 17 14 17 13 11
26 28 28 28 30 33 31 28 27 26 26 24 24 27 27 30 32 34 28 26 20 23 20 21 22 23 28 29 29 27 26 19 13 13 12 14 14 16 15 15 13 14 13
31 31 28 30 32 31 28 28 29 27 25 22 24 26 25 27 26 28 30 36 29 25 24 22 21 30 32 36 34 33 28 23 18 13 13 16 17 18 17 16 16 16 18
32 31 29 30 30 29 28 26 25 25 22 21 20 24 26 27 24 29 31 34 33 30 23 23 28 34 32 40 40 38 33 26 20 15 17 19 19 20 13 11 15 17 18
30 30 28 27 27 28 27 25 24 23 23 22 22 22 21 26 28 23 33 32 34 31 27 27 27 15 21 27 33 39 35 31 24 20 19 20 19 12 11 12 16 16 17
29 26 26 27 27 27 28 26 25 26 28 25 25 23 23 21 22 33 32 26 31 35 27 25 23 23 15 16 23 25 29 23 21 22 21 22 19 11 14 15 14 16 14
26 25 24 24 24 24 23 25 31 36 35 33 35 28 27 31 30 14 6 10 18 34 30 24 23 22 20 18 21 21 22 24 24 24 26 23 16 9 13 14 16 15 13
26 25 23 24 23 22 23 21 11 25 34 39 41 34 43 39 31 21 14 14 10 9 28 25 22 22 22 22 23 23 21 24 26 27 25 17 13 12 15 16 15 14 14
26 28 27 25 24 23 23 24 24 19 9 20 34 41 42 40 42 38 31 24 18 11 17 23 21 21 24 21 22 21 21 22 25 21 18 16 12 14 11 11 13 10 14
25 25 24 25 23 22 21 23 23 22 22 22 22 25 34 43 42 38 27 16 12 12 11 20 19 22 20 23 23 23 27 26 24 16 19 17 15 11 13 14 13 18 20
26 26 28 24 22 20 20 21 21 20 20 20 21 22 22 27 28 32 24 19 18 17 13 15 21 19 21 29 22 22 27 26 17 22 23 21 15 12 16 15 17 16 22
22 21 21 19 20 20 20 20 21 19 18 18 20 17 22 23 20 28 27 24 25 21 15 14 19 19 15 16 16 16 20 17 20 24 24 18 12 13 16 18 20 18 19
21 19 15 16 16 17 20 21 20 18 17 16 17 22 23 17 19 22 26 25 23 21 15 17 16 12 17 22 18 23 21 19 26 25 21 16 13 15 18 19 17 19 20
17 11 9 11 5 6 5 6 10 15 14 15 15 14 20 20 20 22 24 25 23 22 21 20 16 17 21 18 26 29 25 24 26 22 18 15 15 17 12 19 27 11 23
19 16 11 9 9 8 9 8 9 11 13 14 14 15 15 16 19 23 25 25 24 24 23 22 23 20 18 22 22 23 23 22 18 16 13 13 16 16 19 14 18 25 27
21 20 16 15 15 9 9 10 11 11 12 15 17 18 16 15 18 21 23 22 25 23 22 22 20 21 24 23 12 15 15 14 13 11 12 17 15 16 18 27 30 27 30
22 20 18 18 19 20 16 12 11 11 11 12 14 15 14 15 21 22 22 22 22 22 24 24 27 22 17 13 7 8 9 11 14 13 19 24 17 23 30 30 31 29 27
Wind_Direction
293 277 292 311 317 315 305 273 281 285 285 276 277 270 261 221 198 194 200 197 171 256 295 252 220 225 238 244 261 292 202 136 132 256 280 279 309 284 275 277 291 285 279
301 307 286 282 301 308 311 315 293 285 284 280 277 276 256 225 207 211 196 203 203 161 228 231 210 219 235 236 239 256 218 206 185 210 216 235 253 263 281 276 271 271 270
307 305 302 297 299 295 304 307 308 308 298 308 281 257 245 222 205 188 194 178 200 216 211 207 205 216 224 218 226 232 279 234 205 197 219 244 255 268 275 275 250 272 285
302 297 297 297 295 289 294 294 289 291 291 295 316 311 314 211 211 209 202 208 206 206 202 207 204 214 228 200 210 222 240 278 256 253 261 255 260 269 278 274 286 292 285
292 293 291 292 288 288 279 285 289 283 294 281 293 313 303 297 216 204 197 193 197 195 194 190 195 208 182 187 187 171 163 183 337 349 346 342 340 350 350 333 314 299 291
280 275 279 284 278 275 284 279 279 274 280 282 273 268 283 310 292 192 189 178 185 188 179 185 187 199 213 191 172 191 208 261 281 297 314 318 318 323 323 319 321 308 307
289 292 291 295 298 300 283 277 274 276 264 268 258 249 257 279 289 230 193 195 192 191 195 181 184 191 204 210 216 219 230 242 257 257 256 266 280 295 308 307 310 314 295
292 294 291 286 285 289 288 289 284 271 266 260 267 258 234 249 255 285 241 224 237 198 202 202 194 198 201 199 192 200 214 226 229 237 248 274 277 290 291 293 296 293 287
281 279 278 281 281 276 282 283 275 279 266 252 254 247 238 250 261 262 259 206 217 259 223 217 208 207 216 201 192 200 218 225 221 241 258 268 267 298 301 296 297 278 271
272 265 267 271 271 273 271 269 283 299 257 254 246 246 253 257 258 252 246 196 205 222 225 220 236 210 210 204 201 205 213 227 225 236 227 236 274 293 282 265 293 272 274
280 270 270 269 269 269 261 266 271 273 290 274 258 250 252 245 246 242 240 224 220 215 223 228 219 223 219 222 220 220 222 227 229 236 248 266 277 278 277 267 271 255 272
286 275 271 272 267 260 256 256 259 260 256 273 263 258 260 255 246 242 238 232 218 222 217 226 232 228 227 225 225 227 230 227 226 234 257 266 269 277 270 278 257 258 265
273 271 271 268 259 254 253 251 250 254 257 252 259 246 248 250 251 238 233 227 226 222 222 216 230 232 234 230 230 229 225 221 222 228 243 257 264 273 266 278 269 267 283
281 273 269 264 259 254 248 244 243 239 242 245 240 246 247 238 239 251 227 232 232 230 224 230 243 250 243 245 235 230 226 225 224 230 237 247 263 265 287 286 268 268 291
278 275 270 268 265 254 244 244 247 247 236 237 236 238 236 250 243 228 241 218 219 226 218 222 234 245 230 215 211 223 214 209 213 225 234 246 251 259 280 285 257 277 262
276 271 266 260 259 257 253 247 244 245 245 242 239 240 239 244 263 286 343 232 230 219 206 209 218 224 226 211 197 190 191 200 214 227 234 231 216 234 260 267 269 257 273
271 268 266 262 255 253 255 254 247 246 241 244 246 244 245 251 257 265 283 1 307 249 209 214 215 211 220 211 200 200 196 204 219 227 232 217 197 232 253 254 267 290 267
277 273 262 259 254 245 239 241 238 236 235 240 242 244 248 246 251 261 265 277 301 269 218 212 212 213 214 218 208 202 207 215 226 240 197 182 206 234 245 250 254 295 304
279 271 267 263 258 253 245 245 241 232 227 230 231 233 238 241 243 252 259 248 245 279 227 214 220 208 217 218 230 210 216 219 224 209 188 194 212 223 248 260 290 299 293
278 265 259 258 258 252 240 237 240 231 226 223 220 223 219 218 222 232 229 223 215 234 257 221 214 231 204 223 241 222 226 233 223 181 187 197 212 231 230 240 251 258 264
284 272 260 252 248 245 240 235 231 224 226 223 222 218 222 200 205 213 216 209 210 214 229 251 212 218 220 238 242 247 233 241 195 185 187 196 207 234 236 238 256 259 266
288 272 265 252 252 245 238 234 222 213 212 211 208 207 212 193 195 197 203 210 207 207 214 236 235 214 234 236 246 249 245 204 177 187 186 199 218 235 236 250 262 291 156
310 262 272 273 299 359 93 30 159 179 188 190 190 186 201 205 191 190 190 197 200 197 208 225 223 223 238 246 234 234 231 175 179 179 189 203 216 211 227 288 277 188 125
358 24 14 33 30 25 50 109 121 153 159 167 176 160 172 178 183 184 182 183 189 193 203 209 215 226 246 254 260 222 187 171 174 191 219 218 204 195 245 262 141 120 121
8 11 23 20 22 48 61 79 92 90 110 136 143 151 166 168 173 169 171 175 180 187 195 204 206 215 234 243 230 162 164 175 193 212 209 195 202 244 178 125 127 123 126
15 18 17 17 23 24 33 58 89 109 117 127 138 151 167 167 165 162 163 166 170 180 186 196 208 229 234 236 154 161 195 220 215 222 203 188 172 138 134 132 132 128 128